< < Back
Terminal Aerodrome Forecast


Current Version              Previous Versions:   1  2  3  4  5  6  7  8  9  

Terminal Aerodrome Forecast

552
FTUS42 KGSP 061149 CCA
TAFCLT
TAF COR
KCLT 061149Z 0612/0712 02008G16KT P6SM SCT025
     FM061600 03010KT P6SM FEW030
     FM061800 36005KT P6SM SKC
     FM062200 18004KT P6SM SKC=



Latest METAR

772
SAUS70 KWBC 070000 RRB
MTRCLT
METAR KCLT 062352Z 17003KT 10SM FEW250 04/M10 A3038 RMK AO2 SLP294
T00391100 10067 20022 57001


USA.gov is the U.S. government's official web portal to all federal, state and local government web resources and services.